AZP860 SGAS-SASA

Flight info

Callsign AZP860
Flight time 1h 45m
Altitude 26000
Route KALOM KALOM UM789 JUJ
Aircraft BE20/L-SBGRY/S

Departure

Time 2026-04-22 22:12
Airport Silvio Pettirossi International Airport (SGAS)

Arrival

Time 2026-04-22 23:57
Airport Martín Miguel de Güemes International Airport (SASA)
Time Latitude Longitude Altitude Speed Heading
2026-04-22 21:53 -25.24408 -57.51585 281 ft 0 kts 261°
2026-04-22 22:07 -25.24408 -57.51586 281 ft 2 kts 261°
2026-04-22 22:07 -25.24449 -57.51582 281 ft 8 kts 73°
2026-04-22 22:08 -25.24381 -57.51572 280 ft 16 kts 341°
2026-04-22 22:08 -25.24311 -57.51672 280 ft 24 kts 275°
2026-04-22 22:08 -25.24277 -57.51771 280 ft 11 kts 337°
2026-04-22 22:08 -25.24138 -57.51735 278 ft 29 kts 12°
2026-04-22 22:09 -25.23904 -57.51678 275 ft 40 kts 12°
2026-04-22 22:09 -25.23606 -57.51603 271 ft 47 kts 12°
2026-04-22 22:09 -25.23274 -57.51520 267 ft 43 kts 11°
2026-04-22 22:09 -25.23080 -57.51476 264 ft 33 kts 12°
2026-04-22 22:10 -25.22815 -57.51408 261 ft 43 kts 10°
2026-04-22 22:10 -25.22551 -57.51377 257 ft 22 kts 314°
2026-04-22 22:10 -25.22530 -57.51556 257 ft 6 kts 228°
2026-04-22 22:10 -25.22555 -57.51569 257 ft 0 kts 194°
2026-04-22 22:11 -25.22560 -57.51570 257 ft 8 kts 193°
2026-04-22 22:11 -25.22933 -57.51670 264 ft 103 kts 192°
2026-04-22 22:11 -25.23843 -57.51889 452 ft 152 kts 194°
2026-04-22 22:11 -25.24895 -57.52311 876 ft 170 kts 208°
2026-04-22 22:12 -25.25685 -57.53359 1070 ft 192 kts 237°
2026-04-22 22:12 -25.26662 -57.54366 1377 ft 197 kts 202°
2026-04-22 22:12 -25.28021 -57.54756 1594 ft 207 kts 194°
2026-04-22 22:12 -25.29441 -57.55159 1794 ft 213 kts 195°
2026-04-22 22:13 -25.30789 -57.55804 2159 ft 209 kts 213°
2026-04-22 22:13 -25.31796 -57.56944 2642 ft 210 kts 239°
2026-04-22 22:13 -25.32143 -57.58528 2837 ft 218 kts 277°
2026-04-22 22:13 -25.31543 -57.60032 3138 ft 217 kts 313°
2026-04-22 22:14 -25.30564 -57.61297 3379 ft 217 kts 304°
2026-04-22 22:14 -25.30140 -57.62878 3648 ft 218 kts 272°
2026-04-22 22:14 -25.30350 -57.64540 3953 ft 219 kts 263°
2026-04-22 22:14 -25.30512 -57.66206 4273 ft 217 kts 270°
2026-04-22 22:15 -25.30393 -57.67856 4614 ft 216 kts 283°
2026-04-22 22:15 -25.30008 -57.69463 4925 ft 216 kts 289°
2026-04-22 22:15 -25.29588 -57.71061 5233 ft 217 kts 288°
2026-04-22 22:15 -25.29205 -57.72646 5538 ft 218 kts 287°
2026-04-22 22:16 -25.28819 -57.74265 5856 ft 218 kts 287°
2026-04-22 22:16 -25.28431 -57.75889 6173 ft 219 kts 287°
2026-04-22 22:16 -25.28038 -57.77523 6490 ft 220 kts 287°
2026-04-22 22:16 -25.27643 -57.79162 6794 ft 221 kts 287°
2026-04-22 22:17 -25.27248 -57.80804 7097 ft 222 kts 287°
2026-04-22 22:17 -25.26853 -57.82451 7403 ft 222 kts 287°
2026-04-22 22:17 -25.26454 -57.84105 7714 ft 223 kts 287°
2026-04-22 22:17 -25.26056 -57.85757 8022 ft 223 kts 287°
2026-04-22 22:18 -25.25657 -57.87417 8340 ft 224 kts 287°
2026-04-22 22:18 -25.25256 -57.89078 8659 ft 224 kts 287°
2026-04-22 22:18 -25.24855 -57.90742 8981 ft 225 kts 287°
2026-04-22 22:18 -25.24451 -57.92415 9306 ft 225 kts 287°
2026-04-22 22:19 -25.24047 -57.94090 9635 ft 226 kts 287°
2026-04-22 22:19 -25.23638 -57.95777 9960 ft 227 kts 287°
2026-04-22 22:19 -25.23232 -57.97462 10252 ft 228 kts 287°
2026-04-22 22:19 -25.22826 -57.99137 10550 ft 229 kts 287°
2026-04-22 22:20 -25.22410 -58.00859 10856 ft 229 kts 287°
2026-04-22 22:20 -25.21997 -58.02566 11159 ft 230 kts 287°
2026-04-22 22:20 -25.21581 -58.04278 11470 ft 231 kts 287°
2026-04-22 22:20 -25.21172 -58.05972 11776 ft 232 kts 287°
2026-04-22 22:21 -25.20746 -58.07724 12086 ft 233 kts 287°
2026-04-22 22:21 -25.20326 -58.09456 12404 ft 234 kts 287°
2026-04-22 22:21 -25.19908 -58.11176 12720 ft 235 kts 287°
2026-04-22 22:21 -25.19483 -58.12926 13043 ft 236 kts 287°
2026-04-22 22:22 -25.19055 -58.14685 13369 ft 238 kts 287°
2026-04-22 22:22 -25.18675 -58.16463 13689 ft 240 kts 279°
2026-04-22 22:22 -25.18518 -58.18304 13997 ft 241 kts 278°
2026-04-22 22:22 -25.18338 -58.20146 14290 ft 242 kts 279°
2026-04-22 22:23 -25.18152 -58.22002 14585 ft 243 kts 278°
2026-04-22 22:23 -25.17970 -58.23867 14884 ft 245 kts 278°
2026-04-22 22:23 -25.17789 -58.25740 15184 ft 246 kts 278°
2026-04-22 22:23 -25.17607 -58.27626 15492 ft 247 kts 278°
2026-04-22 22:24 -25.17422 -58.29517 15799 ft 248 kts 278°
2026-04-22 22:24 -25.17237 -58.31414 16109 ft 249 kts 278°
2026-04-22 22:24 -25.17050 -58.33325 16423 ft 251 kts 278°
2026-04-22 22:24 -25.16866 -58.35217 16735 ft 252 kts 278°
2026-04-22 22:25 -25.16674 -58.37170 17059 ft 253 kts 278°
2026-04-22 22:25 -25.16488 -58.39082 17378 ft 254 kts 278°
2026-04-22 22:25 -25.16296 -58.41027 17705 ft 256 kts 278°
2026-04-22 22:25 -25.16104 -58.42986 18035 ft 257 kts 278°
2026-04-22 22:26 -25.15910 -58.44955 18361 ft 259 kts 278°
2026-04-22 22:26 -25.15715 -58.46931 18648 ft 260 kts 278°
2026-04-22 22:26 -25.15518 -58.48915 18938 ft 260 kts 278°
2026-04-22 22:26 -25.15322 -58.50905 19228 ft 261 kts 278°
2026-04-22 22:27 -25.15125 -58.52898 19523 ft 261 kts 278°
2026-04-22 22:27 -25.14927 -58.54894 19821 ft 262 kts 278°
2026-04-22 22:27 -25.14729 -58.56895 20123 ft 262 kts 278°
2026-04-22 22:27 -25.14530 -58.58895 20427 ft 263 kts 278°
2026-04-22 22:28 -25.14331 -58.60901 20734 ft 263 kts 278°
2026-04-22 22:28 -25.14130 -58.62913 21044 ft 264 kts 278°
2026-04-22 22:28 -25.13928 -58.64928 21358 ft 264 kts 278°
2026-04-22 22:28 -25.13727 -58.66945 21675 ft 265 kts 278°
2026-04-22 22:29 -25.13525 -58.68965 21994 ft 265 kts 278°
2026-04-22 22:29 -25.13322 -58.70996 22319 ft 266 kts 279°
2026-04-22 22:29 -25.13118 -58.73030 22644 ft 266 kts 279°
2026-04-22 22:29 -25.12915 -58.75042 22975 ft 266 kts 279°
2026-04-22 22:30 -25.12710 -58.77083 23313 ft 266 kts 279°
2026-04-22 22:30 -25.12507 -58.79106 23642 ft 265 kts 279°
2026-04-22 22:30 -25.12304 -58.81125 23922 ft 264 kts 279°
2026-04-22 22:30 -25.12100 -58.83142 24203 ft 263 kts 279°
2026-04-22 22:31 -25.11898 -58.85147 24483 ft 262 kts 279°
2026-04-22 22:31 -25.11695 -58.87146 24770 ft 261 kts 279°
2026-04-22 22:31 -25.11496 -58.89108 25055 ft 260 kts 279°
2026-04-22 22:31 -25.11296 -58.91083 25346 ft 258 kts 279°
2026-04-22 22:32 -25.11096 -58.93048 25640 ft 257 kts 279°
2026-04-22 22:32 -25.10898 -58.95002 25935 ft 255 kts 279°
2026-04-22 22:32 -25.10695 -58.96971 26030 ft 262 kts 279°
2026-04-22 22:32 -25.10484 -58.99003 26026 ft 271 kts 279°
2026-04-22 22:33 -25.10271 -59.01084 26028 ft 277 kts 279°
2026-04-22 22:33 -25.10052 -59.03222 26036 ft 282 kts 279°
2026-04-22 22:33 -25.09829 -59.05388 26040 ft 286 kts 279°
2026-04-22 22:33 -25.09603 -59.07585 26043 ft 289 kts 279°
2026-04-22 22:34 -25.09375 -59.09795 26046 ft 292 kts 279°
2026-04-22 22:34 -25.09145 -59.12028 26046 ft 294 kts 279°
2026-04-22 22:34 -25.08917 -59.14240 26046 ft 295 kts 279°
2026-04-22 22:34 -25.08683 -59.16499 26045 ft 296 kts 279°
2026-04-22 22:35 -25.08450 -59.18755 26046 ft 297 kts 279°
2026-04-22 22:35 -25.08215 -59.21025 26047 ft 298 kts 279°
2026-04-22 22:35 -25.07979 -59.23295 26045 ft 298 kts 279°
2026-04-22 22:35 -25.07742 -59.25571 26044 ft 299 kts 279°
2026-04-22 22:36 -25.07505 -59.27848 26046 ft 299 kts 279°
2026-04-22 22:36 -25.07267 -59.30131 26045 ft 299 kts 279°
2026-04-22 22:36 -25.07029 -59.32413 26045 ft 300 kts 279°
2026-04-22 22:36 -25.06789 -59.34701 26043 ft 300 kts 279°
2026-04-22 22:37 -25.06550 -59.36979 26041 ft 299 kts 279°
2026-04-22 22:37 -25.06311 -59.39262 26042 ft 299 kts 279°
2026-04-22 22:37 -25.06071 -59.41546 26040 ft 299 kts 279°
2026-04-22 22:37 -25.05831 -59.43829 26038 ft 299 kts 279°
2026-04-22 22:38 -25.05594 -59.46077 26035 ft 299 kts 279°
2026-04-22 22:38 -25.05353 -59.48361 26033 ft 299 kts 279°
2026-04-22 22:38 -25.05112 -59.50641 26030 ft 299 kts 279°
2026-04-22 22:38 -25.04871 -59.52925 26031 ft 299 kts 279°
2026-04-22 22:39 -25.04629 -59.55208 26030 ft 299 kts 279°
2026-04-22 22:39 -25.04386 -59.57491 26030 ft 299 kts 279°
2026-04-22 22:39 -25.04144 -59.59771 26032 ft 299 kts 279°
2026-04-22 22:39 -25.03901 -59.62053 26033 ft 299 kts 279°
2026-04-22 22:40 -25.03661 -59.64304 26032 ft 299 kts 279°
2026-04-22 22:40 -25.03417 -59.66587 26032 ft 299 kts 279°
2026-04-22 22:40 -25.03174 -59.68863 26030 ft 299 kts 279°
2026-04-22 22:40 -25.02932 -59.71141 26032 ft 299 kts 279°
2026-04-22 22:41 -25.02714 -59.73427 26031 ft 299 kts 279°
2026-04-22 22:41 -25.02501 -59.75713 26032 ft 299 kts 279°
2026-04-22 22:41 -25.02279 -59.78000 26030 ft 299 kts 279°
2026-04-22 22:41 -25.02054 -59.80276 26030 ft 299 kts 279°
2026-04-22 22:42 -25.01835 -59.82532 26035 ft 299 kts 279°
2026-04-22 22:42 -25.01613 -59.84808 26034 ft 299 kts 279°
2026-04-22 22:42 -25.01389 -59.87096 26034 ft 299 kts 279°
2026-04-22 22:42 -25.01166 -59.89376 26037 ft 299 kts 279°
2026-04-22 22:43 -25.00941 -59.91658 26034 ft 299 kts 279°
2026-04-22 22:43 -25.00718 -59.93932 26035 ft 299 kts 279°
2026-04-22 22:43 -25.00494 -59.96211 26035 ft 299 kts 279°
2026-04-22 22:43 -25.00269 -59.98487 26033 ft 299 kts 279°
2026-04-22 22:44 -25.00044 -60.00763 26034 ft 299 kts 279°
2026-04-22 22:44 -24.99820 -60.03039 26034 ft 299 kts 279°
2026-04-22 22:44 -24.99593 -60.05323 26034 ft 299 kts 279°
2026-04-22 22:44 -24.99367 -60.07600 26034 ft 299 kts 279°
2026-04-22 22:45 -24.99141 -60.09874 26032 ft 299 kts 279°
2026-04-22 22:45 -24.98914 -60.12150 26031 ft 299 kts 279°
2026-04-22 22:45 -24.98687 -60.14431 26031 ft 299 kts 279°
2026-04-22 22:45 -24.98459 -60.16707 26031 ft 299 kts 279°
2026-04-22 22:46 -24.98233 -60.18979 26037 ft 299 kts 279°
2026-04-22 22:46 -24.98004 -60.21254 26034 ft 299 kts 279°
2026-04-22 22:46 -24.97777 -60.23532 26032 ft 298 kts 279°
2026-04-22 22:46 -24.97548 -60.25803 26031 ft 298 kts 279°
2026-04-22 22:47 -24.97320 -60.28070 26027 ft 298 kts 279°
2026-04-22 22:47 -24.97094 -60.30316 26033 ft 298 kts 279°
2026-04-22 22:47 -24.96864 -60.32587 26033 ft 298 kts 279°
2026-04-22 22:47 -24.96635 -60.34855 26033 ft 298 kts 279°
2026-04-22 22:48 -24.96405 -60.37126 26034 ft 298 kts 279°
2026-04-22 22:48 -24.96175 -60.39400 26033 ft 298 kts 279°
2026-04-22 22:48 -24.95944 -60.41668 26037 ft 298 kts 279°
2026-04-22 22:48 -24.95713 -60.43941 26036 ft 298 kts 279°
2026-04-22 22:49 -24.95482 -60.46207 26041 ft 298 kts 279°
2026-04-22 22:49 -24.95250 -60.48479 26041 ft 298 kts 279°
2026-04-22 22:49 -24.95017 -60.50752 26034 ft 298 kts 279°
2026-04-22 22:49 -24.94786 -60.53018 26033 ft 297 kts 279°
2026-04-22 22:50 -24.94553 -60.55282 26037 ft 297 kts 279°
2026-04-22 22:50 -24.94324 -60.57524 26036 ft 297 kts 279°
2026-04-22 22:50 -24.94091 -60.59785 26036 ft 297 kts 279°
2026-04-22 22:50 -24.93859 -60.62049 26037 ft 297 kts 279°
2026-04-22 22:51 -24.93625 -60.64309 26036 ft 297 kts 279°
2026-04-22 22:51 -24.93392 -60.66575 26038 ft 297 kts 279°
2026-04-22 22:51 -24.93158 -60.68837 26037 ft 298 kts 279°
2026-04-22 22:51 -24.92921 -60.71110 26037 ft 298 kts 279°
2026-04-22 22:52 -24.92686 -60.73378 26037 ft 298 kts 279°
2026-04-22 22:52 -24.92453 -60.75626 26035 ft 298 kts 279°
2026-04-22 22:52 -24.92217 -60.77893 26037 ft 298 kts 279°
2026-04-22 22:52 -24.91980 -60.80166 26028 ft 298 kts 280°
2026-04-22 22:53 -24.91742 -60.82442 26037 ft 298 kts 279°
2026-04-22 22:53 -24.91504 -60.84715 26027 ft 298 kts 280°
2026-04-22 22:53 -24.91266 -60.86985 26036 ft 298 kts 279°
2026-04-22 22:53 -24.91029 -60.89251 26027 ft 298 kts 280°
2026-04-22 22:54 -24.90790 -60.91522 26037 ft 298 kts 279°
2026-04-22 22:54 -24.90551 -60.93789 26036 ft 298 kts 280°
2026-04-22 22:54 -24.90312 -60.96062 26036 ft 298 kts 280°
2026-04-22 22:54 -24.90071 -60.98331 26037 ft 298 kts 280°
2026-04-22 22:55 -24.89831 -61.00598 26039 ft 298 kts 280°
2026-04-22 22:55 -24.89592 -61.02868 26039 ft 298 kts 280°
2026-04-22 22:55 -24.89112 -61.07377 26047 ft 298 kts 280°
2026-04-22 22:56 -24.88871 -61.09645 26046 ft 298 kts 280°
2026-04-22 22:56 -24.88629 -61.11909 26043 ft 298 kts 280°
2026-04-22 22:56 -24.88389 -61.14171 26040 ft 297 kts 280°
2026-04-22 22:56 -24.88147 -61.16435 26040 ft 297 kts 280°
2026-04-22 22:57 -24.87904 -61.18699 26035 ft 297 kts 280°
2026-04-22 22:57 -24.87663 -61.20958 26038 ft 297 kts 280°
2026-04-22 22:57 -24.87420 -61.23216 26043 ft 297 kts 280°
2026-04-22 22:57 -24.87178 -61.25475 26042 ft 297 kts 280°
2026-04-22 22:58 -24.87016 -61.26972 26044 ft 297 kts 280°
2026-04-22 22:58 -24.86774 -61.29228 26044 ft 297 kts 280°
2026-04-22 22:58 -24.86530 -61.31486 26043 ft 297 kts 280°
2026-04-22 22:58 -24.86286 -61.33746 26049 ft 297 kts 280°
2026-04-22 22:59 -24.86041 -61.36003 26043 ft 297 kts 280°
2026-04-22 22:59 -24.85797 -61.38255 26041 ft 297 kts 280°
2026-04-22 22:59 -24.85552 -61.40513 26042 ft 296 kts 280°
2026-04-22 22:59 -24.85308 -61.42768 26042 ft 296 kts 280°
2026-04-22 23:00 -24.85063 -61.45018 26048 ft 296 kts 280°
2026-04-22 23:00 -24.84816 -61.47272 26046 ft 296 kts 280°
2026-04-22 23:00 -24.84492 -61.50253 26046 ft 296 kts 280°
2026-04-22 23:00 -24.84326 -61.51769 26047 ft 296 kts 280°
2026-04-22 23:01 -24.84079 -61.54020 26047 ft 296 kts 280°
2026-04-22 23:01 -24.83833 -61.56277 26045 ft 296 kts 280°
2026-04-22 23:01 -24.83586 -61.58527 26039 ft 297 kts 280°
2026-04-22 23:01 -24.83337 -61.60786 26047 ft 297 kts 280°
2026-04-22 23:02 -24.83092 -61.63015 26044 ft 297 kts 280°
2026-04-22 23:02 -24.82844 -61.65271 26047 ft 297 kts 280°
2026-04-22 23:02 -24.82593 -61.67537 26041 ft 297 kts 280°
2026-04-22 23:02 -24.82344 -61.69795 26048 ft 297 kts 280°
2026-04-22 23:03 -24.82093 -61.72059 26051 ft 298 kts 280°
2026-04-22 23:03 -24.81842 -61.74327 26051 ft 298 kts 281°
2026-04-22 23:03 -24.81440 -61.76552 26071 ft 296 kts 288°
2026-04-22 23:03 -24.80888 -61.78731 26057 ft 296 kts 287°
2026-04-22 23:04 -24.80361 -61.80925 26053 ft 296 kts 287°
2026-04-22 23:04 -24.79827 -61.83114 26051 ft 296 kts 288°
2026-04-22 23:04 -24.79285 -61.85302 26052 ft 296 kts 288°
2026-04-22 23:04 -24.78744 -61.87492 26047 ft 296 kts 288°
2026-04-22 23:05 -24.78203 -61.89684 26049 ft 296 kts 288°
2026-04-22 23:05 -24.77679 -61.91846 26047 ft 297 kts 285°
2026-04-22 23:05 -24.77359 -61.94089 26055 ft 298 kts 279°
2026-04-22 23:05 -24.77121 -61.96356 26050 ft 297 kts 280°
2026-04-22 23:06 -24.76863 -61.98608 26047 ft 297 kts 280°
2026-04-22 23:06 -24.76611 -62.00866 26050 ft 297 kts 280°
2026-04-22 23:06 -24.76362 -62.03125 26050 ft 297 kts 280°
2026-04-22 23:06 -24.76114 -62.05378 26046 ft 297 kts 280°
2026-04-22 23:07 -24.75863 -62.07638 26054 ft 297 kts 280°
2026-04-22 23:07 -24.75612 -62.09888 26053 ft 297 kts 280°
2026-04-22 23:07 -24.75362 -62.12141 26052 ft 297 kts 280°
2026-04-22 23:07 -24.75111 -62.14387 26055 ft 296 kts 280°
2026-04-22 23:08 -24.74860 -62.16642 26054 ft 296 kts 280°
2026-04-22 23:08 -24.74608 -62.18890 26056 ft 296 kts 280°
2026-04-22 23:08 -24.74359 -62.21118 26056 ft 296 kts 280°
2026-04-22 23:08 -24.74106 -62.23369 26061 ft 296 kts 280°
2026-04-22 23:09 -24.73853 -62.25624 26056 ft 296 kts 280°
2026-04-22 23:09 -24.73600 -62.27878 26055 ft 296 kts 280°
2026-04-22 23:09 -24.73347 -62.30128 26061 ft 296 kts 280°
2026-04-22 23:09 -24.73095 -62.32369 26058 ft 296 kts 280°
2026-04-22 23:10 -24.72840 -62.34620 26061 ft 296 kts 280°
2026-04-22 23:10 -24.72587 -62.36863 26061 ft 296 kts 280°
2026-04-22 23:10 -24.72332 -62.39118 26061 ft 296 kts 280°
2026-04-22 23:10 -24.72077 -62.41370 26064 ft 297 kts 280°
2026-04-22 23:11 -24.71821 -62.43621 26060 ft 297 kts 280°
2026-04-22 23:11 -24.71565 -62.45875 26065 ft 297 kts 280°
2026-04-22 23:11 -24.71312 -62.48099 26065 ft 297 kts 280°
2026-04-22 23:11 -24.71052 -62.50381 26064 ft 297 kts 280°
2026-04-22 23:12 -24.70798 -62.52611 26074 ft 297 kts 280°
2026-04-22 23:12 -24.70540 -62.54870 26064 ft 297 kts 280°
2026-04-22 23:12 -24.70284 -62.57126 26069 ft 297 kts 280°
2026-04-22 23:12 -24.70028 -62.59381 26069 ft 297 kts 280°
2026-04-22 23:13 -24.69770 -62.61640 26072 ft 297 kts 280°
2026-04-22 23:13 -24.69513 -62.63891 26072 ft 297 kts 280°
2026-04-22 23:13 -24.69254 -62.66149 26078 ft 297 kts 280°
2026-04-22 23:13 -24.68996 -62.68403 26077 ft 297 kts 280°
2026-04-22 23:14 -24.68737 -62.70663 26073 ft 297 kts 280°
2026-04-22 23:14 -24.68478 -62.72916 26072 ft 297 kts 280°
2026-04-22 23:14 -24.68218 -62.75172 26072 ft 297 kts 280°
2026-04-22 23:14 -24.67959 -62.77430 26082 ft 297 kts 280°
2026-04-22 23:15 -24.67698 -62.79688 26084 ft 297 kts 280°
2026-04-22 23:15 -24.67438 -62.81945 26083 ft 297 kts 280°
2026-04-22 23:15 -24.67180 -62.84170 26090 ft 297 kts 280°
2026-04-22 23:15 -24.66919 -62.86429 26087 ft 298 kts 280°
2026-04-22 23:16 -24.66656 -62.88688 26081 ft 298 kts 280°
2026-04-22 23:16 -24.66395 -62.90945 26080 ft 298 kts 280°
2026-04-22 23:16 -24.66131 -62.93208 26085 ft 298 kts 280°
2026-04-22 23:16 -24.65870 -62.95460 26086 ft 298 kts 280°
2026-04-22 23:17 -24.65606 -62.97723 26085 ft 298 kts 280°
2026-04-22 23:17 -24.65342 -62.99981 26078 ft 298 kts 280°
2026-04-22 23:17 -24.65079 -63.02235 26088 ft 298 kts 280°
2026-04-22 23:17 -24.64814 -63.04495 26088 ft 298 kts 280°
2026-04-22 23:18 -24.64550 -63.06753 26088 ft 298 kts 280°
2026-04-22 23:18 -24.64285 -63.09013 26088 ft 298 kts 280°
2026-04-22 23:18 -24.64020 -63.11270 26083 ft 298 kts 280°
2026-04-22 23:18 -24.63754 -63.13526 26099 ft 298 kts 280°
2026-04-22 23:19 -24.63487 -63.15790 26093 ft 298 kts 280°
2026-04-22 23:19 -24.63226 -63.18011 26087 ft 298 kts 280°
2026-04-22 23:19 -24.62960 -63.20262 26093 ft 297 kts 280°
2026-04-22 23:19 -24.62693 -63.22519 26093 ft 297 kts 280°
2026-04-22 23:20 -24.62427 -63.24768 26093 ft 297 kts 281°
2026-04-22 23:20 -24.62160 -63.27025 26099 ft 298 kts 281°
2026-04-22 23:20 -24.61895 -63.29284 26099 ft 298 kts 280°
2026-04-22 23:20 -24.61629 -63.31546 26094 ft 298 kts 280°
2026-04-22 23:21 -24.61363 -63.33804 26098 ft 299 kts 280°
2026-04-22 23:21 -24.61094 -63.36072 26093 ft 299 kts 281°
2026-04-22 23:21 -24.60828 -63.38334 26105 ft 299 kts 280°
2026-04-22 23:21 -24.60559 -63.40603 26106 ft 299 kts 281°
2026-04-22 23:22 -24.60290 -63.42875 26100 ft 299 kts 281°
2026-04-22 23:22 -24.60021 -63.45139 26107 ft 299 kts 280°
2026-04-22 23:22 -24.59751 -63.47404 26104 ft 299 kts 280°
2026-04-22 23:22 -24.59483 -63.49667 26103 ft 299 kts 280°
2026-04-22 23:23 -24.59213 -63.51935 26107 ft 299 kts 280°
2026-04-22 23:23 -24.58943 -63.54197 26108 ft 298 kts 280°
2026-04-22 23:23 -24.58672 -63.56462 26108 ft 298 kts 281°
2026-04-22 23:23 -24.58406 -63.58690 26107 ft 298 kts 280°
2026-04-22 23:24 -24.58132 -63.60982 26105 ft 298 kts 281°
2026-04-22 23:24 -24.57865 -63.63210 26109 ft 298 kts 281°
2026-04-22 23:24 -24.57594 -63.65466 26110 ft 298 kts 281°
2026-04-22 23:24 -24.57323 -63.67724 26110 ft 298 kts 281°
2026-04-22 23:25 -24.57050 -63.69989 26108 ft 298 kts 281°
2026-04-22 23:25 -24.56778 -63.72247 26106 ft 298 kts 281°
2026-04-22 23:25 -24.56505 -63.74504 26123 ft 298 kts 281°
2026-04-22 23:25 -24.56232 -63.76759 26121 ft 297 kts 281°
2026-04-22 23:26 -24.55961 -63.79004 26118 ft 297 kts 281°
2026-04-22 23:26 -24.55690 -63.81250 26115 ft 296 kts 281°
2026-04-22 23:26 -24.55417 -63.83494 26116 ft 296 kts 281°
2026-04-22 23:26 -24.55146 -63.85733 26116 ft 295 kts 281°
2026-04-22 23:27 -24.54874 -63.87969 26120 ft 295 kts 281°
2026-04-22 23:27 -24.54605 -63.90176 26122 ft 295 kts 281°
2026-04-22 23:27 -24.54332 -63.92409 26121 ft 295 kts 281°
2026-04-22 23:27 -24.54061 -63.94640 26122 ft 295 kts 281°
2026-04-22 23:28 -24.53788 -63.96873 26121 ft 295 kts 281°
2026-04-22 23:28 -24.53515 -63.99105 26126 ft 295 kts 281°
2026-04-22 23:28 -24.53241 -64.01342 26128 ft 295 kts 281°
2026-04-22 23:28 -24.52967 -64.03572 26126 ft 295 kts 281°
2026-04-22 23:29 -24.52694 -64.05804 26135 ft 294 kts 281°
2026-04-22 23:29 -24.52419 -64.08031 26132 ft 294 kts 281°
2026-04-22 23:29 -24.52154 -64.10228 26127 ft 294 kts 281°
2026-04-22 23:29 -24.51887 -64.12454 26131 ft 293 kts 281°
2026-04-22 23:30 -24.51619 -64.14668 26134 ft 293 kts 281°
2026-04-22 23:30 -24.51349 -64.16887 26121 ft 293 kts 281°
2026-04-22 23:30 -24.51080 -64.19105 26131 ft 293 kts 281°
2026-04-22 23:30 -24.50809 -64.21330 26132 ft 294 kts 281°
2026-04-22 23:31 -24.50537 -64.23555 26135 ft 295 kts 281°
2026-04-22 23:31 -24.50257 -64.25814 25917 ft 302 kts 281°
2026-04-22 23:31 -24.49980 -64.28071 25686 ft 294 kts 281°
2026-04-22 23:31 -24.49718 -64.30273 25446 ft 286 kts 281°
2026-04-22 23:32 -24.49460 -64.32416 25214 ft 281 kts 281°
2026-04-22 23:32 -24.49198 -64.34531 24980 ft 278 kts 281°
2026-04-22 23:32 -24.48939 -64.36622 24757 ft 274 kts 281°
2026-04-22 23:32 -24.48683 -64.38696 24484 ft 274 kts 281°
2026-04-22 23:33 -24.48433 -64.40734 24222 ft 272 kts 281°
2026-04-22 23:33 -24.48178 -64.42825 23955 ft 273 kts 281°
2026-04-22 23:33 -24.47920 -64.44895 23683 ft 274 kts 281°
2026-04-22 23:33 -24.47656 -64.46968 23369 ft 274 kts 282°
2026-04-22 23:34 -24.47381 -64.49011 23057 ft 274 kts 282°
2026-04-22 23:34 -24.47105 -64.51082 22740 ft 274 kts 282°
2026-04-22 23:34 -24.46834 -64.53148 22438 ft 273 kts 281°
2026-04-22 23:34 -24.46561 -64.55222 22128 ft 274 kts 281°
2026-04-22 23:35 -24.46287 -64.57290 21829 ft 274 kts 281°
2026-04-22 23:35 -24.46012 -64.59364 21529 ft 274 kts 281°
2026-04-22 23:35 -24.45740 -64.61428 21234 ft 272 kts 281°
2026-04-22 23:35 -24.45467 -64.63486 20940 ft 271 kts 281°
2026-04-22 23:36 -24.45197 -64.65527 20649 ft 270 kts 281°
2026-04-22 23:36 -24.44926 -64.67561 20363 ft 269 kts 281°
2026-04-22 23:36 -24.44658 -64.69585 20079 ft 268 kts 281°
2026-04-22 23:36 -24.44389 -64.71603 19798 ft 266 kts 281°
2026-04-22 23:37 -24.44122 -64.73607 19512 ft 265 kts 281°
2026-04-22 23:37 -24.43856 -64.75602 19244 ft 264 kts 281°
2026-04-22 23:37 -24.43591 -64.77591 18972 ft 263 kts 280°
2026-04-22 23:37 -24.43329 -64.79551 18705 ft 262 kts 280°
2026-04-22 23:38 -24.43066 -64.81519 18437 ft 260 kts 280°
2026-04-22 23:38 -24.42803 -64.83480 18129 ft 259 kts 280°
2026-04-22 23:38 -24.42541 -64.85441 17822 ft 259 kts 280°
2026-04-22 23:38 -24.42279 -64.87392 17514 ft 258 kts 280°
2026-04-22 23:39 -24.42018 -64.89336 17218 ft 258 kts 280°
2026-04-22 23:39 -24.41756 -64.91284 16920 ft 257 kts 281°
2026-04-22 23:39 -24.41495 -64.93226 16625 ft 257 kts 280°
2026-04-22 23:39 -24.41234 -64.95165 16334 ft 257 kts 281°
2026-04-22 23:40 -24.40974 -64.97098 16161 ft 252 kts 280°
2026-04-22 23:40 -24.40726 -64.98972 16161 ft 245 kts 280°
2026-04-22 23:40 -24.40480 -65.00806 16150 ft 241 kts 281°
2026-04-22 23:40 -24.40235 -65.02609 16148 ft 239 kts 281°
2026-04-22 23:41 -24.40017 -65.04405 16145 ft 237 kts 275°
2026-04-22 23:41 -24.40176 -65.06204 16147 ft 238 kts 259°
2026-04-22 23:41 -24.40773 -65.07920 15973 ft 247 kts 243°
2026-04-22 23:41 -24.41831 -65.09439 15754 ft 254 kts 227°
2026-04-22 23:42 -24.43253 -65.10573 15549 ft 259 kts 210°
2026-04-22 23:42 -24.44957 -65.11270 15350 ft 262 kts 199°
2026-04-22 23:42 -24.46692 -65.11863 15165 ft 261 kts 200°
2026-04-22 23:42 -24.48428 -65.12471 14979 ft 261 kts 200°
2026-04-22 23:43 -24.50158 -65.13077 14788 ft 261 kts 200°
2026-04-22 23:43 -24.51878 -65.13676 14659 ft 259 kts 199°
2026-04-22 23:43 -24.53590 -65.14273 14520 ft 258 kts 199°
2026-04-22 23:43 -24.55293 -65.14868 14381 ft 257 kts 199°
2026-04-22 23:44 -24.56996 -65.15464 14242 ft 256 kts 199°
2026-04-22 23:44 -24.58692 -65.16057 14107 ft 255 kts 199°
2026-04-22 23:44 -24.60382 -65.16648 13968 ft 255 kts 199°
2026-04-22 23:44 -24.62052 -65.17232 13811 ft 254 kts 199°
2026-04-22 23:45 -24.63738 -65.17823 13657 ft 254 kts 199°
2026-04-22 23:45 -24.65423 -65.18413 13503 ft 254 kts 199°
2026-04-22 23:45 -24.67105 -65.19002 13350 ft 253 kts 199°
2026-04-22 23:45 -24.68784 -65.19590 13193 ft 253 kts 199°
2026-04-22 23:46 -24.70467 -65.20179 13055 ft 253 kts 199°
2026-04-22 23:46 -24.72138 -65.20765 12906 ft 252 kts 198°
2026-04-22 23:46 -24.73810 -65.21352 12752 ft 252 kts 199°
2026-04-22 23:46 -24.75478 -65.21936 12607 ft 251 kts 199°
2026-04-22 23:47 -24.77143 -65.22520 12456 ft 251 kts 199°
2026-04-22 23:47 -24.78797 -65.23103 12308 ft 250 kts 200°
2026-04-22 23:47 -24.80351 -65.23928 12169 ft 248 kts 211°
2026-04-22 23:47 -24.81852 -65.24831 12033 ft 248 kts 209°
2026-04-22 23:48 -24.83382 -65.25720 11883 ft 248 kts 209°
2026-04-22 23:48 -24.84897 -65.26609 11739 ft 247 kts 209°
2026-04-22 23:48 -24.86412 -65.27504 11596 ft 247 kts 210°
2026-04-22 23:48 -24.87416 -65.28097 11496 ft 245 kts 210°
2026-04-22 23:49 -24.88895 -65.28968 11340 ft 239 kts 210°
2026-04-22 23:49 -24.90362 -65.29830 11151 ft 238 kts 208°
2026-04-22 23:49 -24.91891 -65.30515 10950 ft 236 kts 200°
2026-04-22 23:49 -24.93436 -65.31117 10760 ft 235 kts 200°
2026-04-22 23:50 -24.94967 -65.31739 10571 ft 234 kts 201°
2026-04-22 23:50 -24.96496 -65.32365 10376 ft 234 kts 200°
2026-04-22 23:50 -24.98023 -65.32970 10169 ft 232 kts 199°
2026-04-22 23:50 -24.99544 -65.33590 9903 ft 234 kts 202°
2026-04-22 23:51 -25.01066 -65.34232 9615 ft 234 kts 201°
2026-04-22 23:51 -25.02595 -65.34856 9339 ft 234 kts 203°
2026-04-22 23:51 -25.03929 -65.35801 9086 ft 230 kts 224°
2026-04-22 23:51 -25.04919 -65.37164 8843 ft 226 kts 244°
2026-04-22 23:52 -25.05457 -65.38757 8593 ft 220 kts 261°
2026-04-22 23:52 -25.05534 -65.40416 8339 ft 215 kts 279°
2026-04-22 23:52 -25.05261 -65.42025 8074 ft 213 kts 284°
2026-04-22 23:52 -25.04985 -65.43632 7809 ft 212 kts 283°
2026-04-22 23:53 -25.04711 -65.45225 7570 ft 211 kts 284°
2026-04-22 23:53 -25.04431 -65.46804 7354 ft 208 kts 284°
2026-04-22 23:53 -25.04139 -65.48335 7157 ft 206 kts 289°
2026-04-22 23:53 -25.03509 -65.49721 7018 ft 201 kts 309°
2026-04-22 23:54 -25.02532 -65.50793 6870 ft 196 kts 327°
2026-04-22 23:54 -25.01335 -65.51453 6739 ft 188 kts 345°
2026-04-22 23:54 -25.00076 -65.51676 6609 ft 181 kts
2026-04-22 23:54 -24.98856 -65.51506 6465 ft 173 kts 13°
2026-04-22 23:55 -24.97696 -65.51255 6334 ft 171 kts 11°
2026-04-22 23:55 -24.96521 -65.51005 6183 ft 173 kts 12°
2026-04-22 23:55 -24.95337 -65.50746 6001 ft 174 kts 12°
2026-04-22 23:55 -24.94145 -65.50485 5772 ft 175 kts 13°
2026-04-22 23:56 -24.92955 -65.50229 5437 ft 169 kts 12°
2026-04-22 23:56 -24.91839 -65.49977 5116 ft 157 kts 15°
2026-04-22 23:56 -24.90816 -65.49736 4908 ft 143 kts 13°
2026-04-22 23:56 -24.89839 -65.49546 4811 ft 145 kts 11°
2026-04-22 23:57 -24.88881 -65.49331 4594 ft 138 kts 13°
2026-04-22 23:57 -24.87961 -65.49140 4258 ft 125 kts 10°
2026-04-22 23:57 -24.87199 -65.48979 4086 ft 101 kts
2026-04-22 23:57 -24.86591 -65.48825 4046 ft 41 kts
2026-04-22 23:58 -24.86561 -65.48734 4042 ft 12 kts 353°
2026-04-22 23:58 -24.86553 -65.48653 4039 ft 10 kts 353°
2026-04-22 23:58 -24.86523 -65.48595 4038 ft 5 kts 351°
2026-04-22 23:58 -24.86523 -65.48572 4038 ft 1 kts